sat.trackr.live / text

‹ back to catalog

STARLINK-30500

NORAD 58076 · 2023-160B

PAYLOAD ACTIVE UNKNOWN

§ Identity

Operator
Country
US
Launch date
2023-10-18
Launch site
AFETR
Launch vehicle
Mass (kg)
RCS (m²)

Purposes: comms

External: N2YO · Heavens-Above · Gunter

§ Orbital elements

Epoch: 2026-05-24T23:33:19.623168Z

Period
94.27 min
Inclination
43.0033°
Eccentricity
0.0000837
Mean motion
15.27583599 rev/d
Perigee alt
482.5 km
Apogee alt
483.6 km
Semi-major
6,861.2 km
B*
1.8682e-4
RAAN
7.0275°
Arg perigee
261.9876°
Mean anomaly
98.0880°
Rev number
14,461

§ Raw data

STARLINK-305001 58076U 23160B   26144.98147712  .00004883  00000+0  18682-3 0  99942 58076  43.0033   7.0275 0000837 261.9876  98.0880 15.27583599144612

JSON: /api/v1/satellites/58076 · /tle

For live sub-satellite position, see the globe view (requires WebGL).

§ Visibility from observer

Set your observer location to see the next 7 days of passes ≥ 10°. The values pass through the URL so the page stays shareable.

No JS? Fill the form by hand. The geolocation button needs JavaScript.